Current Weather Conditions: station 62140

sailwx.info

Wind from 200 at 17 knots

Air temperature 16.1° C
Dewpoint 16.1° C

Last reported at 2019-Aug-24 08:00 UTC.
Time now 2019-Aug-24 09:46 UTC

Location: N 57°18' E 001°18'.
View on Google Maps.

See reports from other nearby stations

  
Tides and Currents Weather Stations Pressure Air Temp Water Temp Dewpoint Dewpoint Depression Visibility Wind Speed Wind Dir Waves Ship Positions
date/time (UTC)wind fromknots sea level pressurealtimeterstation pressurevisibilityair tempwater tempwave heightnotes
2019-Aug-24 08:00 200 17 16.1
2019-Aug-24 07:00 190 14 16.1
2019-Aug-24 06:00 190 14 16.0
2019-Aug-24 05:00 190 14 16.0
2019-Aug-24 04:00 190 14 16.0
2019-Aug-24 03:00 180 15 16.0
2019-Aug-24 02:00 190 13 16.1
2019-Aug-24 01:00 200 14 16.2
2019-Aug-24 00:00 200 13 16.3
2019-Aug-23 23:00 210 13 16.4
2019-Aug-23 22:00 210 13 16.3
2019-Aug-23 21:00 220 14 16.2
2019-Aug-23 20:00 210 12 16.1
2019-Aug-23 19:00 220 12 16.2
2019-Aug-23 18:00 200 6 16.0
2019-Aug-23 17:00 230 11 15.9
2019-Aug-23 16:00 230 15 16.0
2019-Aug-23 15:00 230 17 15.9
2019-Aug-23 14:00 250 21 16.1
2019-Aug-23 13:00 250 17 15.8
2019-Aug-23 12:00 250 19 15.7
2019-Aug-23 11:00 250 19 15.6
2019-Aug-23 10:00 250 20 15.5
2019-Aug-23 09:00 250 20 15.6
2019-Aug-23 08:00 260 20 15.6
2019-Aug-23 07:00 250 18 15.8
2019-Aug-23 06:00 260 18 15.8
2019-Aug-23 05:00 260 20 15.9
2019-Aug-23 04:00 260 19 15.8
2019-Aug-23 03:00 270 24 15.7
2019-Aug-23 02:00 260 24 15.6
2019-Aug-23 01:00 260 18 15.5
2019-Aug-23 00:00 250 20 15.8
2019-Aug-22 23:00 250 19 15.9
2019-Aug-22 22:00 230 24 16.2
2019-Aug-22 21:00 240 20 16.2
2019-Aug-22 20:00 230 21 16.0
2019-Aug-22 19:00 220 22 15.9
2019-Aug-22 18:00 220 21 15.8
2019-Aug-22 17:00 220 18 15.6
2019-Aug-22 16:00 210 18 15.5
2019-Aug-22 15:00 220 18 15.5
2019-Aug-22 14:00 220 18 15.3
2019-Aug-22 13:00 230 19 15.2
2019-Aug-22 12:00 230 18 15.0
2019-Aug-22 11:00 230 15 14.8
2019-Aug-22 10:00 220 14 14.9
2019-Aug-22 09:00 240 13 14.7